Observations

Aujourd'hui

  • Température

    Max: 4.0° à 11:49:50

    Moy: 3.4°

    Min: 2.1° à 00:08:29

 

  • Humidité

    Max: 98% à 11:49:50

    Min: 98% à 11:49:50

 

  • Précipitation accumulée

    Aujourd'hui: 4 mm

    Ce mois-ci: 42 mm

    Cette année: 56 mm



HeureTemperaturePoint de roséeHumiditéDir. VentVitesseRafalesPressionPrecip.Precip. Accum.
11:49 4°C 3.7°C 98% 6.9 km/h 8.2 km/h 984 hPa 0 mm/hr 4.32 mm
11:44 4°C 3.7°C 98% 2.6 km/h 6.1 km/h 984 hPa 0 mm/hr 4.32 mm
11:39 4°C 3.7°C 98% 2.9 km/h 7.2 km/h 984 hPa 0 mm/hr 4.32 mm
11:34 4°C 3.7°C 98% 2.1 km/h 7.2 km/h 984 hPa 0 mm/hr 4.32 mm
11:29 3.9°C 3.6°C 98% 5.5 km/h 8.2 km/h 984 hPa 0 mm/hr 4.32 mm
11:24 3.9°C 3.6°C 98% 5.8 km/h 8.2 km/h 984 hPa 0 mm/hr 4.32 mm
11:19 3.8°C 3.5°C 98% 4.7 km/h 7.2 km/h 984 hPa 0 mm/hr 4.32 mm
11:14 3.8°C 3.5°C 98% 7.2 km/h 12.2 km/h 984 hPa 0 mm/hr 4.32 mm
11:09 3.7°C 3.4°C 98% 6.4 km/h 12.2 km/h 984 hPa 0 mm/hr 4.32 mm
11:04 3.7°C 3.4°C 98% 4 km/h 6.4 km/h 984 hPa 0 mm/hr 4.32 mm
10:59 3.7°C 3.4°C 98% 2.1 km/h 6.4 km/h 984 hPa 0 mm/hr 4.32 mm
10:54 3.6°C 3.3°C 98% 2.1 km/h 6.4 km/h 984 hPa 0 mm/hr 4.32 mm
10:49 3.6°C 3.3°C 98% 4.7 km/h 9.3 km/h 984 hPa 0 mm/hr 4.32 mm
10:44 3.6°C 3.3°C 98% 6.1 km/h 18.7 km/h 983 hPa 0 mm/hr 4.32 mm
10:39 3.6°C 3.3°C 98% 4.3 km/h 18.7 km/h 983 hPa 0 mm/hr 4.32 mm
10:34 3.6°C 3.3°C 98% 2.9 km/h 7.9 km/h 983 hPa 0 mm/hr 4.32 mm
10:29 3.6°C 3.3°C 98% 2.9 km/h 7.9 km/h 983 hPa 1.02 mm/hr 4.32 mm
10:24 3.6°C 3.3°C 98% 4 km/h 8.7 km/h 983 hPa 1.02 mm/hr 4.32 mm
10:19 3.6°C 3.3°C 98% 5.8 km/h 9.7 km/h 983 hPa 1.02 mm/hr 4.32 mm
10:14 3.6°C 3.3°C 98% 8.2 km/h 9.7 km/h 983 hPa 1.02 mm/hr 4.32 mm
10:09 3.6°C 3.3°C 98% 4 km/h 10.1 km/h 983 hPa 1.02 mm/hr 4.32 mm
10:04 3.6°C 3.3°C 98% 4 km/h 10.1 km/h 983 hPa 1.02 mm/hr 4.32 mm
09:59 3.5°C 3.2°C 98% 2.9 km/h 10.1 km/h 983 hPa 1.02 mm/hr 4.32 mm
09:54 3.5°C 3.2°C 98% 5 km/h 7.2 km/h 983 hPa 1.02 mm/hr 4.32 mm
09:49 3.4°C 3.1°C 98% 5.8 km/h 9.7 km/h 983 hPa 1.02 mm/hr 4.32 mm
09:44 3.4°C 3.1°C 98% 2.6 km/h 10.1 km/h 983 hPa 1.02 mm/hr 4.32 mm
09:39 3.4°C 3.1°C 98% 9.7 km/h 12.6 km/h 983 hPa 1.02 mm/hr 4.32 mm
09:34 3.4°C 3.1°C 98% 2.9 km/h 12.6 km/h 983 hPa 0 mm/hr 3.3 mm
09:29 3.4°C 3.1°C 98% 12.6 km/h 12.6 km/h 983 hPa 0 mm/hr 3.3 mm
09:24 3.4°C 3.1°C 98% 5 km/h 10.5 km/h 983 hPa 0 mm/hr 3.3 mm
09:19 3.4°C 3.1°C 98% 2.6 km/h 10.5 km/h 983 hPa 0 mm/hr 3.3 mm
09:14 3.4°C 3.1°C 98% 10.5 km/h 10.5 km/h 983 hPa 0 mm/hr 3.3 mm
09:09 3.3°C 3°C 98% 6.1 km/h 6.9 km/h 983 hPa 0 mm/hr 3.3 mm
09:04 3.3°C 3°C 98% 4.7 km/h 6.9 km/h 983 hPa 0 mm/hr 3.3 mm
08:59 3.3°C 3°C 98% 6.9 km/h 6.9 km/h 982 hPa 0 mm/hr 3.3 mm
08:54 3.3°C 3°C 98% 4.7 km/h 6.1 km/h 982 hPa 0 mm/hr 3.3 mm
08:49 3.3°C 3°C 98% 2.9 km/h 6.1 km/h 982 hPa 0 mm/hr 3.3 mm
08:44 3.3°C 3°C 98% 6.1 km/h 7.9 km/h 982 hPa 0 mm/hr 3.3 mm
08:39 3.3°C 3°C 98% 5.5 km/h 9 km/h 982 hPa 0 mm/hr 3.3 mm
08:34 3.3°C 3°C 98% 4.7 km/h 9 km/h 982 hPa 0 mm/hr 3.3 mm
08:29 3.3°C 3°C 98% 2.9 km/h 8.2 km/h 982 hPa 0 mm/hr 3.3 mm
08:24 3.3°C 3°C 98% 2.9 km/h 8.2 km/h 982 hPa 0 mm/hr 3.3 mm
08:19 3.3°C 3°C 98% 2.6 km/h 6.1 km/h 982 hPa 0 mm/hr 3.3 mm
08:14 3.3°C 3°C 98% 2.9 km/h 9.3 km/h 982 hPa 0 mm/hr 3.3 mm
08:09 3.3°C 3°C 98% 4.7 km/h 9.3 km/h 982 hPa 0 mm/hr 3.3 mm
08:04 3.3°C 3°C 98% 2.6 km/h 9 km/h 982 hPa 0 mm/hr 3.3 mm
07:59 3.3°C 3°C 98% 2.9 km/h 9 km/h 982 hPa 0 mm/hr 3.3 mm
07:54 3.3°C 3°C 98% 9 km/h 9 km/h 982 hPa 0 mm/hr 3.3 mm
07:49 3.3°C 3°C 98% 2.9 km/h 7.9 km/h 982 hPa 0 mm/hr 3.3 mm
07:44 3.3°C 3°C 98% 7.9 km/h 7.9 km/h 982 hPa 0 mm/hr 3.3 mm
07:39 3.3°C 3°C 98% 6.4 km/h 10.8 km/h 982 hPa 0 mm/hr 3.3 mm
07:34 3.3°C 3°C 98% 2.6 km/h 10.8 km/h 982 hPa 0 mm/hr 3.3 mm
07:29 3.3°C 3°C 98% 3.2 km/h 6.9 km/h 982 hPa 0 mm/hr 3.3 mm
07:24 3.3°C 3°C 98% 2.9 km/h 8.2 km/h 982 hPa 0 mm/hr 3.3 mm
07:19 3.3°C 3°C 98% 4 km/h 8.2 km/h 982 hPa 0 mm/hr 3.3 mm
07:14 3.3°C 3°C 98% 3.2 km/h 7.2 km/h 981 hPa 0 mm/hr 3.3 mm
07:09 3.3°C 3°C 98% 0 km/h 7.2 km/h 981 hPa 0 mm/hr 3.3 mm
07:04 3.3°C 3°C 98% 0 km/h 9.7 km/h 981 hPa 0 mm/hr 3.3 mm
06:59 3.3°C 3°C 98% 2.9 km/h 9.7 km/h 981 hPa 0 mm/hr 3.3 mm
06:54 3.3°C 3°C 98% 5.8 km/h 9 km/h 981 hPa 0 mm/hr 3.3 mm
06:49 3.3°C 3°C 98% 0 km/h 7.9 km/h 981 hPa 0 mm/hr 3.3 mm
06:44 3.3°C 3°C 98% 4.7 km/h 7.9 km/h 981 hPa 0 mm/hr 3.3 mm
06:39 3.3°C 3°C 98% 4.7 km/h 7.9 km/h 981 hPa 0 mm/hr 3.3 mm
06:34 3.3°C 3°C 98% 5.8 km/h 5.8 km/h 981 hPa 0 mm/hr 3.3 mm
06:29 3.3°C 3°C 98% 0 km/h 6.1 km/h 981 hPa 0 mm/hr 3.3 mm
06:24 3.3°C 3°C 98% 0 km/h 9.7 km/h 981 hPa 0 mm/hr 3.3 mm
06:19 3.3°C 3°C 98% 3.2 km/h 9.7 km/h 981 hPa 0 mm/hr 3.3 mm
06:14 3.3°C 3°C 98% 4.7 km/h 9.7 km/h 981 hPa 0 mm/hr 3.3 mm
06:09 3.3°C 3°C 98% 4.3 km/h 6.9 km/h 981 hPa 0 mm/hr 3.3 mm
06:04 3.4°C 3.1°C 98% 0 km/h 8.7 km/h 981 hPa 0 mm/hr 3.3 mm
05:59 3.4°C 3.1°C 98% 6.1 km/h 11.9 km/h 981 hPa 0 mm/hr 3.3 mm
05:54 3.4°C 3.1°C 98% 7.9 km/h 11.9 km/h 981 hPa 0 mm/hr 3.3 mm
05:49 3.4°C 3.1°C 98% 1.8 km/h 9.7 km/h 981 hPa 0 mm/hr 3.3 mm
05:44 3.4°C 3.1°C 98% 3.2 km/h 9.7 km/h 981 hPa 0 mm/hr 3.3 mm
05:39 3.4°C 3.1°C 98% 0 km/h 7.9 km/h 981 hPa 0 mm/hr 3.3 mm
05:34 3.4°C 3.1°C 98% 6.9 km/h 7.9 km/h 981 hPa 0 mm/hr 3.3 mm
05:29 3.4°C 3.1°C 98% 0 km/h 8.2 km/h 981 hPa 0 mm/hr 3.3 mm
05:24 3.4°C 3.1°C 98% 2.9 km/h 9 km/h 981 hPa 0 mm/hr 3.3 mm
05:19 3.5°C 3.2°C 98% 8.2 km/h 9 km/h 981 hPa 0 mm/hr 3.3 mm
05:14 3.5°C 3.2°C 98% 3.2 km/h 9 km/h 981 hPa 0 mm/hr 3.3 mm
05:09 3.5°C 3.2°C 98% 0 km/h 9 km/h 981 hPa 0 mm/hr 3.3 mm
05:04 3.5°C 3.2°C 98% 9 km/h 9 km/h 981 hPa 0 mm/hr 3.3 mm
04:59 3.6°C 3.3°C 98% 5 km/h 5.5 km/h 981 hPa 0 mm/hr 3.3 mm
04:54 3.6°C 3.3°C 98% 2.9 km/h 6.9 km/h 981 hPa 0 mm/hr 3.3 mm
04:49 3.6°C 3.3°C 98% 0 km/h 11.1 km/h 981 hPa 0 mm/hr 3.3 mm
04:44 3.6°C 3.3°C 98% 2.6 km/h 11.1 km/h 981 hPa 0 mm/hr 3.3 mm
04:39 3.6°C 3.3°C 98% 2.6 km/h 8.7 km/h 981 hPa 0 mm/hr 3.3 mm
04:34 3.6°C 3.3°C 98% 2.9 km/h 11.9 km/h 981 hPa 0 mm/hr 3.3 mm
04:29 3.6°C 3.3°C 98% 0 km/h 11.9 km/h 981 hPa 0 mm/hr 3.3 mm
04:24 3.7°C 3.4°C 98% 11.9 km/h 12.6 km/h 981 hPa 0 mm/hr 3.3 mm
04:19 3.7°C 3.4°C 98% 0 km/h 12.6 km/h 981 hPa 0 mm/hr 3.3 mm
04:14 3.7°C 3.4°C 98% 3.2 km/h 6.9 km/h 981 hPa 0 mm/hr 3.3 mm
04:09 3.7°C 3.4°C 98% 0 km/h 11.1 km/h 981 hPa 0 mm/hr 3.3 mm
04:04 3.7°C 3.4°C 98% 5.8 km/h 11.1 km/h 981 hPa 0 mm/hr 3.3 mm
03:59 3.7°C 3.4°C 98% 11.1 km/h 11.1 km/h 981 hPa 0 mm/hr 3.3 mm
03:54 3.7°C 3.4°C 98% 0 km/h 6.1 km/h 981 hPa 0 mm/hr 3.3 mm
03:49 3.7°C 3.4°C 98% 2.1 km/h 6.1 km/h 981 hPa 0 mm/hr 3.3 mm
03:44 3.7°C 3.4°C 98% 0 km/h 5.5 km/h 981 hPa 0 mm/hr 3.3 mm
03:39 3.8°C 3.5°C 98% 0 km/h 5.5 km/h 981 hPa 0 mm/hr 3.3 mm
03:34 3.7°C 3.4°C 98% 5.5 km/h 13.4 km/h 981 hPa 0 mm/hr 3.3 mm
03:29 3.7°C 3.4°C 98% 0 km/h 13.4 km/h 980 hPa 0 mm/hr 3.3 mm
03:24 3.7°C 3.4°C 98% 0 km/h 8.7 km/h 980 hPa 0 mm/hr 3.3 mm
03:19 3.7°C 3.4°C 98% 5 km/h 8.7 km/h 980 hPa 0 mm/hr 3.3 mm
03:14 3.7°C 3.4°C 98% 3.2 km/h 4.3 km/h 980 hPa 0 mm/hr 3.3 mm
03:09 3.7°C 3.4°C 98% 4.3 km/h 4.3 km/h 980 hPa 0 mm/hr 3.3 mm
03:04 3.7°C 3.4°C 98% 0 km/h 9.7 km/h 980 hPa 0 mm/hr 3.3 mm
02:59 3.7°C 3.4°C 98% 2.9 km/h 10.1 km/h 980 hPa 0 mm/hr 3.3 mm
02:54 3.7°C 3.4°C 98% 0 km/h 11.9 km/h 980 hPa 0 mm/hr 3.3 mm
02:49 3.7°C 3.4°C 98% 4 km/h 11.9 km/h 980 hPa 0 mm/hr 3.3 mm
02:44 3.7°C 3.4°C 98% 2.9 km/h 6.4 km/h 980 hPa 0 mm/hr 3.3 mm
02:39 3.7°C 3.4°C 98% 3.2 km/h 6.4 km/h 980 hPa 0 mm/hr 3.3 mm
02:34 3.7°C 3.4°C 98% 0 km/h 6.4 km/h 980 hPa 0 mm/hr 3.3 mm
02:29 3.7°C 3.4°C 98% 0 km/h 6.1 km/h 980 hPa 1.02 mm/hr 3.3 mm
02:24 3.7°C 3.4°C 98% 0 km/h 6.9 km/h 980 hPa 1.02 mm/hr 3.3 mm
02:19 3.6°C 3.3°C 98% 0 km/h 6.9 km/h 980 hPa 1.02 mm/hr 3.3 mm
02:14 3.6°C 3.3°C 98% 0 km/h 4.7 km/h 980 hPa 1.02 mm/hr 3.3 mm
02:09 3.6°C 3.3°C 98% 4.7 km/h 4.7 km/h 980 hPa 1.02 mm/hr 3.3 mm
02:04 3.5°C 3.2°C 98% 0 km/h 4.3 km/h 980 hPa 1.02 mm/hr 3.3 mm
01:59 3.5°C 3.2°C 98% 0 km/h 4.7 km/h 980 hPa 1.02 mm/hr 3.3 mm
01:54 3.4°C 3.1°C 98% 0 km/h 6.1 km/h 980 hPa 1.02 mm/hr 3.3 mm
01:49 3.4°C 3.1°C 98% 0 km/h 6.1 km/h 980 hPa 1.02 mm/hr 3.3 mm
01:44 3.3°C 3°C 98% 0 km/h 4.7 km/h 980 hPa 0 mm/hr 2.03 mm
01:39 3.1°C 2.8°C 98% 1.8 km/h 4.7 km/h 980 hPa 0 mm/hr 2.03 mm
01:34 3.1°C 2.8°C 98% 2.6 km/h 4.7 km/h 980 hPa 0 mm/hr 2.03 mm
01:29 3°C 2.7°C 98% 0 km/h 4.7 km/h 980 hPa 1.02 mm/hr 2.03 mm
01:24 3°C 2.7°C 98% 0 km/h 4.3 km/h 980 hPa 1.02 mm/hr 2.03 mm
01:19 2.9°C 2.6°C 98% 0 km/h 4.3 km/h 980 hPa 1.02 mm/hr 2.03 mm
01:14 2.8°C 2.5°C 98% 0 km/h 2.6 km/h 979 hPa 1.02 mm/hr 2.03 mm
01:09 2.8°C 2.5°C 98% 0 km/h 2.6 km/h 979 hPa 1.02 mm/hr 2.03 mm
01:04 2.7°C 2.4°C 98% 0 km/h 9.7 km/h 979 hPa 1.02 mm/hr 2.03 mm
00:59 2.7°C 2.4°C 98% 0 km/h 9.7 km/h 980 hPa 0 mm/hr 1.02 mm
00:54 2.6°C 2.3°C 98% 2.1 km/h 3.2 km/h 980 hPa 0 mm/hr 1.02 mm
00:49 2.5°C 2.2°C 98% 0 km/h 2.9 km/h 980 hPa 0 mm/hr 1.02 mm
00:44 2.4°C 2.1°C 98% 0 km/h 4.3 km/h 979 hPa 0 mm/hr 1.02 mm
00:39 2.4°C 2.1°C 98% 0 km/h 4.3 km/h 980 hPa 0 mm/hr 1.02 mm
00:34 2.4°C 2.1°C 98% 0 km/h 4.3 km/h 980 hPa 0 mm/hr 1.02 mm
00:29 2.3°C 2°C 98% 0 km/h 4 km/h 980 hPa 1.02 mm/hr 1.02 mm
00:24 2.3°C 2°C 98% 0 km/h 2.9 km/h 980 hPa 1.02 mm/hr 1.02 mm
00:19 2.2°C 1.9°C 98% 0 km/h 3.2 km/h 980 hPa 0 mm/hr 0 mm
00:14 2.2°C 1.9°C 98% 2.9 km/h 3.2 km/h 980 hPa 0 mm/hr 0 mm
00:09 2.1°C 1.8°C 98% 0 km/h 3.2 km/h 980 hPa 0 mm/hr 0 mm
00:04 2.1°C 1.8°C 98% 0 km/h 4.3 km/h 980 hPa 0 mm/hr 0 mm